UAL44 KSFO-LSZH

Flight info

Callsign UAL44
Flight time N/A
Altitude 31000
Route SNTNA2 ORRCA Q120 GALLI DCT DNW/N0485F330 DCT DIK DCT GFK DCT YIX DCT DUSMA DCT MCKEE/M084F350 DCT URTAK DCT 60N050W 61N040W 61N030W 60N020W DCT ERAKA/N0480F350 DCT ETSOM/N0478F370 DCT FOYLE DCT GODOS DCT AMGOD DCT NIK M624 REMBA DCT SUTAL DCT GTQ DCT BAMEV DCT BLM
Aircraft B772/H-SDE2E3FGHIJ5LORVWXY/LB1D1

Departure

Time 2026-05-04 21:14
Airport San Francisco International Airport (KSFO)

Arrival

Time N/A
Airport Zürich Airport (LSZH)
Time Latitude Longitude Altitude Speed Heading
2026-05-04 20:48 37.61873 -122.38170 24 ft 0 kts 166°
2026-05-04 20:54 37.61874 -122.38170 24 ft 0 kts 166°
2026-05-04 21:00 37.61879 -122.38172 25 ft 4 kts 169°
2026-05-04 21:00 37.61898 -122.38180 30 ft 4 kts 152°
2026-05-04 21:00 37.61920 -122.38199 29 ft 4 kts 136°
2026-05-04 21:00 37.61932 -122.38214 26 ft 1 kts 134°
2026-05-04 21:04 37.61928 -122.38203 26 ft 5 kts 114°
2026-05-04 21:04 37.61925 -122.38122 28 ft 14 kts 104°
2026-05-04 21:04 37.61883 -122.38000 29 ft 15 kts 118°
2026-05-04 21:05 37.61835 -122.37882 28 ft 15 kts 115°
2026-05-04 21:05 37.61796 -122.37759 25 ft 15 kts 111°
2026-05-04 21:05 37.61758 -122.37636 27 ft 15 kts 111°
2026-05-04 21:05 37.61719 -122.37513 27 ft 15 kts 114°
2026-05-04 21:06 37.61668 -122.37391 26 ft 17 kts 118°
2026-05-04 21:06 37.61611 -122.37255 28 ft 18 kts 118°
2026-05-04 21:06 37.61552 -122.37115 26 ft 18 kts 118°
2026-05-04 21:06 37.61493 -122.36978 27 ft 18 kts 121°
2026-05-04 21:07 37.61415 -122.36852 28 ft 18 kts 130°
2026-05-04 21:07 37.61342 -122.36724 25 ft 18 kts 118°
2026-05-04 21:07 37.61284 -122.36587 23 ft 18 kts 118°
2026-05-04 21:07 37.61225 -122.36448 20 ft 18 kts 118°
2026-05-04 21:08 37.61167 -122.36307 24 ft 18 kts 117°
2026-05-04 21:08 37.61109 -122.36168 24 ft 18 kts 118°
2026-05-04 21:08 37.61080 -122.36101 23 ft 3 kts 118°
2026-05-04 21:08 37.61080 -122.36099 23 ft 0 kts 118°
2026-05-04 21:09 37.61078 -122.36096 23 ft 3 kts 118°
2026-05-04 21:09 37.61058 -122.36040 26 ft 11 kts 109°
2026-05-04 21:10 37.61075 -122.35924 25 ft 13 kts 42°
2026-05-04 21:10 37.61094 -122.35908 22 ft 0 kts 31°
2026-05-04 21:11 37.61115 -122.35893 25 ft 7 kts 30°
2026-05-04 21:11 37.61160 -122.35864 24 ft 8 kts
2026-05-04 21:12 37.61198 -122.35909 25 ft 7 kts 298°
2026-05-04 21:12 37.61203 -122.35920 23 ft 0 kts 298°
2026-05-04 21:13 37.61206 -122.35927 25 ft 6 kts 298°
2026-05-04 21:13 37.61309 -122.36171 20 ft 67 kts 298°
2026-05-04 21:14 37.61638 -122.36955 30 ft 134 kts 298°
2026-05-04 21:14 37.62162 -122.38191 192 ft 173 kts 297°
2026-05-04 21:14 37.62729 -122.39534 839 ft 177 kts 295°
2026-05-04 21:14 37.63308 -122.40943 1609 ft 182 kts 296°
2026-05-04 21:15 37.63915 -122.42381 2122 ft 193 kts 297°
2026-05-04 21:15 37.64573 -122.43916 2280 ft 204 kts 297°
2026-05-04 21:15 37.65283 -122.45542 2395 ft 222 kts 299°
2026-05-04 21:15 37.66061 -122.47303 2647 ft 239 kts 299°
2026-05-04 21:16 37.66872 -122.49219 3270 ft 253 kts 298°
2026-05-04 21:16 37.67886 -122.51045 3970 ft 258 kts 316°
2026-05-04 21:16 37.69394 -122.52306 4454 ft 263 kts 339°
2026-05-04 21:16 37.71208 -122.52621 4941 ft 268 kts
2026-05-04 21:17 37.72967 -122.51867 5428 ft 269 kts 31°
2026-05-04 21:17 37.74564 -122.50587 5886 ft 275 kts 33°
2026-05-04 21:17 37.76195 -122.49309 6557 ft 276 kts 31°
2026-05-04 21:17 37.77854 -122.48099 7218 ft 275 kts 32°
2026-05-04 21:18 37.79477 -122.46822 7846 ft 275 kts 32°
2026-05-04 21:18 37.81096 -122.45531 8379 ft 275 kts 33°
2026-05-04 21:18 37.82725 -122.44254 8912 ft 276 kts 32°
2026-05-04 21:18 37.84270 -122.42868 9483 ft 271 kts 45°
2026-05-04 21:19 37.85549 -122.41095 9864 ft 274 kts 49°
2026-05-04 21:19 37.86811 -122.39255 10229 ft 282 kts 49°
2026-05-04 21:19 37.88122 -122.37328 10370 ft 297 kts 49°
2026-05-04 21:19 37.89509 -122.35293 10523 ft 313 kts 49°
2026-05-04 21:20 37.90952 -122.33175 10642 ft 330 kts 50°
2026-05-04 21:20 37.92492 -122.30917 10771 ft 346 kts 50°
2026-05-04 21:20 37.94101 -122.28574 11042 ft 358 kts 49°
2026-05-04 21:20 37.95767 -122.26178 11467 ft 366 kts 49°
2026-05-04 21:21 37.97460 -122.23776 11895 ft 367 kts 52°
2026-05-04 21:21 37.98844 -122.21041 12307 ft 371 kts 63°
2026-05-04 21:21 37.99809 -122.18011 12914 ft 370 kts 71°
2026-05-04 21:21 38.00591 -122.14876 13311 ft 376 kts 72°
2026-05-04 21:22 38.01376 -122.11685 13860 ft 380 kts 72°
2026-05-04 21:22 38.02157 -122.08485 14523 ft 380 kts 72°
2026-05-04 21:22 38.02934 -122.05288 15167 ft 379 kts 73°
2026-05-04 21:22 38.03707 -122.02088 15782 ft 380 kts 73°
2026-05-04 21:23 38.04480 -121.98879 16357 ft 381 kts 73°
2026-05-04 21:23 38.05295 -121.95688 16851 ft 379 kts 67°
2026-05-04 21:23 38.06659 -121.92797 17183 ft 386 kts 52°
2026-05-04 21:23 38.08494 -121.90297 17707 ft 388 kts 44°
2026-05-04 21:24 38.10538 -121.88052 18318 ft 389 kts 41°
2026-05-04 21:24 38.12669 -121.85935 18803 ft 390 kts 39°
2026-05-04 21:24 38.14838 -121.83862 19264 ft 391 kts 39°
2026-05-04 21:24 38.17022 -121.81791 19718 ft 393 kts 39°
2026-05-04 21:25 38.19210 -121.79707 20155 ft 394 kts 39°
2026-05-04 21:25 38.21400 -121.77607 20591 ft 395 kts 39°
2026-05-04 21:25 38.23598 -121.75486 21020 ft 397 kts 39°
2026-05-04 21:25 38.25796 -121.73354 21453 ft 398 kts 39°
2026-05-04 21:26 38.28001 -121.71211 21897 ft 400 kts 39°
2026-05-04 21:26 38.30209 -121.69059 22343 ft 400 kts 39°
2026-05-04 21:26 38.32423 -121.66901 22749 ft 402 kts 39°
2026-05-04 21:26 38.34639 -121.64737 23091 ft 403 kts 39°
2026-05-04 21:27 38.36877 -121.62561 23430 ft 406 kts 39°
2026-05-04 21:27 38.39123 -121.60377 23768 ft 408 kts 39°
2026-05-04 21:27 38.41375 -121.58168 24146 ft 409 kts 39°
2026-05-04 21:27 38.43560 -121.55846 24508 ft 408 kts 44°
2026-05-04 21:28 38.45547 -121.53262 24754 ft 410 kts 49°
2026-05-04 21:28 38.47370 -121.50443 25017 ft 413 kts 52°
2026-05-04 21:28 38.49149 -121.47552 25320 ft 414 kts 53°
2026-05-04 21:28 38.50912 -121.44629 25677 ft 414 kts 53°
2026-05-04 21:29 38.52685 -121.41713 26027 ft 417 kts 53°
2026-05-04 21:29 38.54388 -121.38726 26208 ft 418 kts 54°
2026-05-04 21:29 38.56156 -121.35755 26345 ft 422 kts 52°
2026-05-04 21:29 38.57974 -121.32812 26568 ft 423 kts 52°
2026-05-04 21:30 38.59805 -121.29864 26844 ft 424 kts 52°
2026-05-04 21:30 38.61632 -121.26899 27160 ft 424 kts 52°
2026-05-04 21:30 38.63454 -121.23928 27404 ft 426 kts 52°
2026-05-04 21:30 38.65285 -121.20937 27576 ft 429 kts 52°
2026-05-04 21:31 38.68957 -121.14888 28029 ft 432 kts 53°
2026-05-04 21:31 38.70175 -121.12868 28202 ft 433 kts 53°
2026-05-04 21:31 38.72014 -121.09816 28463 ft 433 kts 53°
2026-05-04 21:32 38.73857 -121.06757 28681 ft 435 kts 53°
2026-05-04 21:32 38.75706 -121.03689 28880 ft 436 kts 53°
2026-05-04 21:32 38.77561 -121.00614 29062 ft 437 kts 53°
2026-05-04 21:32 38.79424 -120.97528 29227 ft 439 kts 53°
2026-05-04 21:33 38.81288 -120.94425 29376 ft 441 kts 53°
2026-05-04 21:33 38.83167 -120.91298 29518 ft 444 kts 53°
2026-05-04 21:33 38.85057 -120.88168 29706 ft 443 kts 53°
2026-05-04 21:33 38.86934 -120.85026 29840 ft 444 kts 53°
2026-05-04 21:34 38.88812 -120.81872 29956 ft 445 kts 53°
2026-05-04 21:34 38.90693 -120.78716 30126 ft 445 kts 53°
2026-05-04 21:34 38.92576 -120.75564 30286 ft 445 kts 53°
2026-05-04 21:34 38.94461 -120.72412 30450 ft 444 kts 53°
2026-05-04 21:35 38.96336 -120.69283 30738 ft 441 kts 53°
2026-05-04 21:35 39.00083 -120.63022 30901 ft 443 kts 53°
2026-05-04 21:36 39.03835 -120.56713 30939 ft 444 kts 53°
2026-05-04 21:36 39.07556 -120.50436 30940 ft 443 kts 53°
2026-05-04 21:37 39.11291 -120.44132 30935 ft 443 kts 53°
2026-05-04 21:37 39.15024 -120.37827 30901 ft 443 kts 53°